Regional Weather Roundup
Issued by NWS

Home | Current Version | Previous Version | Text Only | Print | Product List | Glossary On
Versions: 1 2 3 4 5 6 7 8 9 10 11 12 13 14 15 16 17 18 19 20 21 22 23 24 25 26 27 28 29 30 31 32 33 34 35 36 37 38 39 40 41 42 43 44 45 46 47 48 49 50
423
ASUS43 KDTX 241501
RWRMI
MICHIGAN HOURLY REGIONAL WEATHER ROUNDUP
NATIONAL WEATHER SERVICE DETROIT/PONTIAC MI
1000 AM EST SAT FEB 24 2018

NOTE: "FAIR" INDICATES FEW OR NO CLOUDS BELOW 12,000 FEET WITH NO
SIGNIFICANT WEATHER AND/OR OBSTRUCTION TO VISIBILITY.

MIZ047>049-052>055-059>063-066>070-074>076-081>083-241600-
SOUTHEAST LOWER MICHIGAN

CITY           SKY/WX    TMP DP  RH WIND       PRES   REMARKS
ADRIAN         CLOUDY    36  31  82 E10       30.22R WCI  28
ALMA           FAIR      35  30  82 NE9       30.24S WCI  28
ANN ARBOR      CLOUDY    37  31  78 NE8       30.22R WCI  31
BAD AXE        CLOUDY    32  27  80 NE8       30.27S WCI  25
CARO           CLOUDY    33  29  85 NE8       30.24S WCI  26
DETROIT CITY   CLOUDY    38  29  70 NE8       30.24R WCI  32
DETROIT        CLOUDY    39  30  70 E9        30.23R WCI  33
FLINT          CLOUDY    36  30  79 E10       30.22S WCI  28
GROSSE ILE     CLOUDY    38  32  80 NE7       30.23R WCI  32
HILLSDALE      CLOUDY    34  32  93 E9        30.18R WCI  26
HOWELL         CLOUDY    36  31  84 NE6       30.21S WCI  31

CITY           SKY/WX    TMP DP  RH WIND       PRES   REMARKS
JACKSON        CLOUDY    36  31  82 NE8       30.20S WCI  30
LAMBERTVILLE   CLOUDY    37  32  82 E5        30.23R WCI  33
LANSING        CLOUDY    35  30  82 NE7       30.22S WCI  29
LAPEER         CLOUDY    33  30  88 E8        30.25R WCI  26
MASON          CLOUDY    37  29  75 E6        30.21S WCI  32
MONROE         CLOUDY    38  31  76 E10       30.22R WCI  31
MT. CLEMENS    CLOUDY    36  35  96 E13       30.22S WCI  28
PONTIAC        CLOUDY    36  29  75 NE9       30.20F WCI  29
PORT HOPE        N/A     32  26  78 NE12      30.26S WCI  23
PORT HURON     CLOUDY    34  27  75 NE13      30.26R WCI  25
TRI CITIES     PTSUNNY   34  29  82 NE13      30.25S WCI  25
MIDLAND        CLOUDY    33  29  82 NE13      30.25S WCI  24
TROY           CLOUDY    38  31  75 NE10      30.25R WCI  31
SAGINAW HB     CLOUDY    34  32  93 E12       30.25R WCI  25
$$
MIZ043>046-050>051-056>058-064>065-071>073-077>080-241600-
SOUTHWEST LOWER MICHIGAN

CITY           SKY/WX    TMP DP  RH WIND       PRES   REMARKS
BATTLE CREEK   CLOUDY    36  29  75 E8        30.19S WCI  30
BENTON HARBOR  CLOUDY    36  30  79 E8        30.18F WCI  30
BIG RAPIDS     CLOUDY    32  24  73 E10       30.21F WCI  24
COLDWATER      CLOUDY    36  33  88 E10       30.18F WCI  29
HOLLAND        CLOUDY    35  28  75 E9        30.20F WCI  28
GRAND RAPIDS   CLOUDY    35  29  78 E12       30.21S WCI  27
IONIA          CLOUDY    34  29  80 NE8       30.20F WCI  28
KALAMAZOO      CLOUDY    37  30  75 E7        30.19F WCI  32
LUDINGTON      CLOUDY    33  26  76 E10       30.22F WCI  25
MARSHALL       CLOUDY    35  31  85 E5        30.20R WCI  31
MOUNT PLEASANT CLOUDY    35  27  71 NE9       30.23S WCI  28
MUSKEGON       CLOUDY    35  27  72 E9        30.21F WCI  28
SOUTH HAVEN    CLOUDY    36  30  80 E6        30.19S WCI  31
$$
MIZ016>042-241600-
NORTHERN LOWER MICHIGAN

CITY           SKY/WX    TMP DP  RH WIND       PRES   REMARKS
ALPENA         CLOUDY    32  22  66 NW3       30.27F
BEAVER ISLAND  CLOUDY    32  22  66 CALM      30.25S
BELLAIRE       CLOUDY    32  25  74 E3        30.27R
CADILLAC       FAIR      30  23  74 NE6       30.20F WCI  24
CHARLEVOIX     CLOUDY    32  22  67 S5        30.28S WCI  27
FRANKFORT      FAIR      35  23  63 E5        30.24S WCI  31
GAYLORD        CLOUDY    27  21  78 CALM      30.22F
GRAYLING       CLOUDY    29  22  76 E6        30.23F WCI  22
HARBOR SPRINGS CLOUDY    32  22  65 CALM      30.25S
HOUGHTON LAKE  CLOUDY    31  22  69 NE3       30.23F
MANISTEE       FAIR      34  23  64 E8        30.23F WCI  27
OSCODA         CLOUDY    32  22  67 N6        30.27F WCI  26
PELLSTON       CLOUDY    32  22  66 S5        30.26S WCI  27
ROGERS CITY    CLOUDY    32  21  64 CALM      30.27F
TRAVERSE CITY  CLOUDY    34  23  64 SE5       30.24F WCI  30
$$
MIZ007>008-015-241600-
EASTERN UPPER MICHIGAN

CITY           SKY/WX    TMP DP  RH WIND       PRES   REMARKS
KINROSS        CLOUDY    32  23  69 SW6       30.24S WCI  26
MACKINAC ISLAN CLOUDY    30  23  75 CALM      30.25S
NEWBERRY       CLOUDY    29  19  64 CALM      30.22S
S. S. MARIE    CLOUDY    32  23  69 W3        30.22F
MUNISING         N/A     33  21  61 CALM      30.22S
$$
MIZ004>006-011>014-085-241600-
CENTRAL UPPER MICHIGAN

CITY           SKY/WX    TMP DP  RH WIND       PRES   REMARKS
MANISTIQUE     CLOUDY    31  24  75 CALM      30.23S
ESCANABA       CLOUDY    32  23  69 SW5       30.23F WCI  27
SAWYER-GWINN   MOSUNNY   25  19  80 CALM      30.19S
$$
MIZ001>003-009>011-084-241600-
WESTERN UPPER MICHIGAN

CITY           SKY/WX    TMP DP  RH WIND       PRES   REMARKS
IRON MOUNTAIN  CLOUDY    25  21  85 CALM      30.18S
HOUGHTON       FAIR      21  15  78 W7        30.17R WCI  12
COPPER HARBOR    N/A     29  20  69 CALM      30.19R
IRONWOOD       CLOUDY    20  18  92 CALM      30.17S FOG
$$

ABBREVIATIONS USED IN REMARKS
   TC - TEMPERATURE IN CELSIUS
  WCI - WIND CHILL INDEX
   HX - HEAT INDEX
  VSB - VISIBILITY





USA.gov is the U.S. government's official web portal to all federal, state and local government web resources and services.